Погода в Чиньяворыке

Россия / Республика Коми     63°12′31″N   52°40′12″E
темп.,
°C
ветер,
м/с
пор.,
м/с
влажн.,
%
обл.,
%
осадки,
мм/ч
давл.,
гПа
погр.,
м
9 марта, вт
вт900:00−29ссв399799 0.0 1011262
03:00−31с379681 0.0 1012246
06:00−33с389610 0.0 1014244
09:00−29с25926 0.0 1015297
12:00−24ссз258947 0.0 1016452
15:00−22ссз248873 0.0 1017587
18:00−26сз239797 0.0 101826
21:00−27сз129750 0.0 101919
10 марта, ср
ср1000:00−28зсз12999 0.0 101919
03:00−29з22995 0.0 101919
06:00−29з229920 0.0 101939
09:00−24з259450 0.0 1018227
12:00−18зюз369190 0.0 1016329
15:00−15з5109394 0.3 1013742
18:00−14зсз41293100 0.3 1012692
21:00−12ссз41087100 0.5 1012846
11 марта, чт
чт1100:00−15зсз2596100 0.0 101298
03:00−13з2596100 0.4 1011181
06:00−8сз61483100 0.5 1011934
09:00−11сз61372100 0.5 1011656
12:00−11зсз598491 0.0 1012529
15:00−10зсз5118572 0.0 1011662
18:00−12зсз5138693 0.0 1011698
21:00−13зсз4138797 0.0 1011748
12 марта, пт
пт1200:00−13з41388100 0.0 1010778
03:00−12з51290100 0.1 1009798
06:00−12з51290100 0.1 1008760
09:00−11з51189100 0.2 1008800
12:00−9з51087100 0.1 1009868
15:00−8з51189100 0.3 1008813
18:00−8з41291100 0.1 1010757
21:00−8з41293100 0.2 1011746
13 марта, сб
сб1300:00−8з51292100 0.1 1012626
03:00−10зюз51491100 0.1 1012554
06:00−10зюз51390100 0.0 1013530
09:00−9зюз51188100 0.0 1014495
12:00−7зюз5118797 0.0 1014563
15:00−5юз5118571 0.0 1014612
18:00−8юз414881 0.0 1015461
21:00−9юз514905 0.0 1015479